Time,TemperatureF,DewpointF,PressureIn,WindDirection,WindDirectionDegrees,WindSpeedMPH,WindSpeedGustMPH,Humidity,HourlyPrecipIn,Conditions,Clouds,dailyrainin,SolarRadiationWatts/m^2,SoftwareType,DateUTC
2013-08-07 00:04:00,73.3,73.0,29.79,South,179,4.0,0.0,99,0.00,,,0.00,0,WeatherHawk,2013-08-07 05:04:00,
2013-08-07 00:10:00,73.5,73.2,29.77,WSW,243,4.0,0.0,99,0.00,,,0.00,1,WeatherHawk,2013-08-07 05:10:00,
2013-08-07 00:15:00,73.3,73.3,29.78,SW,229,1.0,0.0,100,0.00,,,0.00,0,WeatherHawk,2013-08-07 05:15:00,
2013-08-07 00:20:00,73.2,73.2,29.78,SSW,200,5.0,0.0,100,0.00,,,0.00,0,WeatherHawk,2013-08-07 05:20:00,
2013-08-07 00:25:00,73.5,73.5,29.78,SW,215,7.0,0.0,100,0.00,,,0.00,0,WeatherHawk,2013-08-07 05:25:00,
2013-08-07 00:31:00,73.2,73.2,29.77,SW,223,1.0,0.0,100,0.00,,,0.00,0,WeatherHawk,2013-08-07 05:31:00,
2013-08-07 00:36:00,73.0,73.0,29.78,SSW,211,3.0,0.0,100,0.00,,,0.00,0,WeatherHawk,2013-08-07 05:36:00,
2013-08-07 00:41:00,73.2,73.2,29.78,SW,215,4.0,0.0,100,0.00,,,0.00,0,WeatherHawk,2013-08-07 05:41:00,
2013-08-07 00:46:00,73.3,73.3,29.78,South,191,3.0,0.0,100,0.00,,,0.00,1,WeatherHawk,2013-08-07 05:46:00,
2013-08-07 00:52:00,73.5,73.5,29.79,South,190,4.0,0.0,100,0.00,,,0.00,0,WeatherHawk,2013-08-07 05:52:00,
2013-08-07 00:57:00,73.4,73.4,29.78,SW,214,4.0,0.0,100,0.00,,,0.00,0,WeatherHawk,2013-08-07 05:57:00,
2013-08-07 01:02:00,73.5,73.5,29.78,South,186,5.0,0.0,100,0.00,,,0.00,0,WeatherHawk,2013-08-07 06:02:00,
2013-08-07 01:07:00,73.3,73.3,29.78,South,186,3.0,0.0,100,0.00,,,0.00,0,WeatherHawk,2013-08-07 06:07:00,
2013-08-07 01:13:00,72.9,72.9,29.77,SW,227,1.0,0.0,100,0.00,,,0.00,0,WeatherHawk,2013-08-07 06:13:00,
2013-08-07 01:18:00,73.3,73.3,29.77,WSW,254,4.0,0.0,100,0.00,,,0.00,0,WeatherHawk,2013-08-07 06:18:00,
2013-08-07 01:24:00,73.5,73.5,29.77,SSW,193,3.0,0.0,100,0.00,,,0.00,0,WeatherHawk,2013-08-07 06:24:00,
2013-08-07 01:29:00,73.1,73.1,29.76,SSW,212,3.0,0.0,100,0.00,,,0.00,0,WeatherHawk,2013-08-07 06:29:00,
2013-08-07 01:34:00,73.5,73.5,29.76,WSW,256,2.0,0.0,100,0.00,,,0.00,1,WeatherHawk,2013-08-07 06:34:00,
2013-08-07 01:39:00,73.3,73.3,29.76,SSW,210,2.0,0.0,100,0.00,,,0.00,0,WeatherHawk,2013-08-07 06:39:00,
2013-08-07 01:45:00,73.5,73.5,29.76,SW,235,3.0,0.0,100,0.00,,,0.00,0,WeatherHawk,2013-08-07 06:45:00,
2013-08-07 01:51:00,73.3,73.3,29.75,South,171,1.0,0.0,100,0.00,,,0.00,1,WeatherHawk,2013-08-07 06:51:00,
2013-08-07 01:56:00,73.1,73.1,29.76,SW,215,2.0,0.0,100,0.00,,,0.00,0,WeatherHawk,2013-08-07 06:56:00,
2013-08-07 02:01:00,73.0,73.0,29.75,SSW,201,1.0,0.0,100,0.00,,,0.00,0,WeatherHawk,2013-08-07 07:01:00,
2013-08-07 02:06:00,72.8,72.8,29.74,SSW,201,4.0,0.0,100,0.00,,,0.00,0,WeatherHawk,2013-08-07 07:06:00,
2013-08-07 02:11:00,73.4,73.4,29.75,SSW,203,3.0,0.0,100,0.00,,,0.00,0,WeatherHawk,2013-08-07 07:11:00,
2013-08-07 02:16:00,73.5,73.5,29.75,SSW,209,2.0,0.0,100,0.00,,,0.00,0,WeatherHawk,2013-08-07 07:16:00,
2013-08-07 02:21:00,73.2,73.2,29.75,SW,230,1.0,0.0,100,0.00,,,0.00,0,WeatherHawk,2013-08-07 07:21:00,
2013-08-07 02:27:00,72.9,72.9,29.74,South,175,4.0,0.0,100,0.00,,,0.00,0,WeatherHawk,2013-08-07 07:27:00,
2013-08-07 02:32:00,72.8,72.8,29.75,SSW,194,0.0,0.0,100,0.00,,,0.00,0,WeatherHawk,2013-08-07 07:32:00,
2013-08-07 02:37:00,73.4,73.4,29.74,SSW,193,3.0,0.0,100,0.00,,,0.00,0,WeatherHawk,2013-08-07 07:37:00,
2013-08-07 02:42:00,73.5,73.5,29.75,SW,214,5.0,0.0,100,0.00,,,0.00,0,WeatherHawk,2013-08-07 07:42:00,
2013-08-07 02:47:00,73.2,73.2,29.75,SW,219,0.0,0.0,100,0.00,,,0.00,0,WeatherHawk,2013-08-07 07:47:00,
2013-08-07 02:53:00,73.3,73.3,29.75,SW,231,4.0,0.0,100,0.00,,,0.00,0,WeatherHawk,2013-08-07 07:53:00,
2013-08-07 02:58:00,73.6,73.6,29.76,WSW,238,2.0,0.0,100,0.00,,,0.00,0,WeatherHawk,2013-08-07 07:58:00,
2013-08-07 03:03:00,73.6,73.6,29.75,WSW,237,3.0,0.0,100,0.00,,,0.00,0,WeatherHawk,2013-08-07 08:03:00,
2013-08-07 03:08:00,73.4,73.4,29.75,SW,232,1.0,0.0,100,0.00,,,0.00,0,WeatherHawk,2013-08-07 08:08:00,
2013-08-07 03:13:00,73.7,73.7,29.75,SSW,211,4.0,0.0,100,0.00,,,0.00,0,WeatherHawk,2013-08-07 08:13:00,
2013-08-07 03:18:00,74.0,74.0,29.74,SW,218,5.0,0.0,100,0.00,,,0.00,0,WeatherHawk,2013-08-07 08:18:00,
2013-08-07 03:23:00,73.9,73.9,29.74,SW,218,2.0,0.0,100,0.00,,,0.00,0,WeatherHawk,2013-08-07 08:23:00,
2013-08-07 03:28:00,74.0,74.0,29.75,West,262,1.0,0.0,100,0.00,,,0.00,1,WeatherHawk,2013-08-07 08:28:00,
2013-08-07 03:34:00,74.0,74.0,29.75,SW,232,5.0,0.0,100,0.00,,,0.00,0,WeatherHawk,2013-08-07 08:34:00,
2013-08-07 03:39:00,74.1,74.1,29.75,WSW,248,3.0,0.0,100,0.00,,,0.00,0,WeatherHawk,2013-08-07 08:39:00,
2013-08-07 03:44:00,73.6,73.6,29.74,SW,233,2.0,0.0,100,0.00,,,0.00,0,WeatherHawk,2013-08-07 08:44:00,
2013-08-07 03:50:00,73.1,73.1,29.75,SW,229,0.0,0.0,100,0.00,,,0.00,0,WeatherHawk,2013-08-07 08:50:00,
2013-08-07 03:55:00,73.1,73.1,29.75,WSW,257,0.0,0.0,100,0.00,,,0.00,0,WeatherHawk,2013-08-07 08:55:00,
2013-08-07 04:00:00,73.0,73.0,29.76,SW,230,0.0,0.0,100,0.00,,,0.00,0,WeatherHawk,2013-08-07 09:00:00,
2013-08-07 04:05:00,72.9,72.9,29.75,WSW,243,1.0,0.0,100,0.00,,,0.00,0,WeatherHawk,2013-08-07 09:05:00,
2013-08-07 04:10:00,72.8,72.8,29.75,SW,234,0.0,0.0,100,0.00,,,0.00,0,WeatherHawk,2013-08-07 09:10:00,
2013-08-07 04:15:00,72.8,72.8,29.75,SW,231,3.0,0.0,100,0.00,,,0.00,0,WeatherHawk,2013-08-07 09:15:00,
2013-08-07 04:20:00,72.8,72.8,29.76,SSW,195,2.0,0.0,100,0.00,,,0.00,0,WeatherHawk,2013-08-07 09:20:00,
2013-08-07 04:25:00,72.3,72.3,29.75,WSW,258,0.0,0.0,100,0.00,,,0.00,0,WeatherHawk,2013-08-07 09:25:00,
2013-08-07 04:30:00,72.5,72.5,29.75,SW,236,1.0,0.0,100,0.00,,,0.00,0,WeatherHawk,2013-08-07 09:30:00,
2013-08-07 04:35:00,72.0,72.0,29.75,SW,218,0.0,0.0,100,0.00,,,0.00,0,WeatherHawk,2013-08-07 09:35:00,
2013-08-07 04:40:00,71.9,71.9,29.76,SW,226,0.0,-999.0,100,0.00,,,0.00,0,WeatherHawk,2013-08-07 09:40:00,
2013-08-07 04:45:00,71.6,71.6,29.75,SW,227,0.0,0.0,100,0.00,,,0.00,0,WeatherHawk,2013-08-07 09:45:00,
2013-08-07 04:50:00,71.7,71.7,29.76,WSW,253,0.0,0.0,100,0.00,,,0.00,0,WeatherHawk,2013-08-07 09:50:00,
2013-08-07 04:55:00,72.0,72.0,29.76,WSW,245,0.0,0.0,100,0.00,,,0.00,1,WeatherHawk,2013-08-07 09:55:00,
2013-08-07 05:00:00,71.1,71.1,29.75,WSW,247,0.0,0.0,100,0.00,,,0.00,0,WeatherHawk,2013-08-07 10:00:00,
2013-08-07 05:06:00,70.8,70.8,29.76,WSW,246,0.0,0.0,100,0.00,,,0.00,0,WeatherHawk,2013-08-07 10:06:00,
2013-08-07 05:11:00,70.7,70.7,29.75,WSW,246,0.0,0.0,100,0.00,,,0.00,0,WeatherHawk,2013-08-07 10:11:00,
2013-08-07 05:16:00,70.2,70.2,29.76,WSW,246,0.0,0.0,100,0.00,,,0.00,0,WeatherHawk,2013-08-07 10:16:00,
2013-08-07 05:22:00,70.1,70.1,29.75,WSW,246,0.0,0.0,100,0.00,,,0.00,0,WeatherHawk,2013-08-07 10:22:00,
2013-08-07 05:28:00,69.9,69.9,29.76,WSW,246,0.0,0.0,100,0.00,,,0.00,0,WeatherHawk,2013-08-07 10:28:00,
2013-08-07 05:33:00,69.7,69.7,29.76,WSW,246,0.0,0.0,100,0.00,,,0.00,0,WeatherHawk,2013-08-07 10:33:00,
2013-08-07 05:38:00,69.8,69.8,29.76,WSW,246,0.0,0.0,100,0.00,,,0.00,0,WeatherHawk,2013-08-07 10:38:00,
2013-08-07 05:44:00,68.7,68.7,29.75,SSW,195,0.0,0.0,100,0.00,,,0.00,1,WeatherHawk,2013-08-07 10:44:00,
2013-08-07 05:49:00,69.8,69.8,29.75,SSW,195,0.0,0.0,100,0.00,,,0.00,1,WeatherHawk,2013-08-07 10:49:00,
2013-08-07 05:54:00,69.6,69.6,29.75,SSW,195,0.0,0.0,100,0.00,,,0.00,3,WeatherHawk,2013-08-07 10:54:00,
2013-08-07 06:00:00,69.3,69.3,29.76,West,277,0.0,0.0,100,0.00,,,0.00,7,WeatherHawk,2013-08-07 11:00:00,
2013-08-07 06:05:00,69.6,69.6,29.76,West,276,0.0,0.0,100,0.00,,,0.00,8,WeatherHawk,2013-08-07 11:05:00,
2013-08-07 06:10:00,69.8,69.8,29.76,SSW,204,0.0,0.0,100,0.00,,,0.00,12,WeatherHawk,2013-08-07 11:10:00,
2013-08-07 06:15:00,69.9,69.9,29.77,SW,218,1.0,0.0,100,0.00,,,0.00,15,WeatherHawk,2013-08-07 11:15:00,
2013-08-07 06:20:00,70.0,70.0,29.77,SW,226,0.0,0.0,100,0.00,,,0.00,21,WeatherHawk,2013-08-07 11:20:00,
2013-08-07 06:26:00,70.6,70.6,29.78,SW,229,0.0,0.0,100,0.00,,,0.00,30,WeatherHawk,2013-08-07 11:26:00,
2013-08-07 06:28:00,70.7,70.7,29.76,West,263,0.0,0.0,100,0.00,,,0.00,33,WeatherHawk,2013-08-07 11:28:00,
2013-08-07 06:33:00,70.5,70.5,29.77,West,263,0.0,0.0,100,0.00,,,0.00,42,WeatherHawk,2013-08-07 11:33:00,
2013-08-07 06:38:00,71.0,71.0,29.77,West,263,0.0,0.0,100,0.00,,,0.00,50,WeatherHawk,2013-08-07 11:38:00,
2013-08-07 06:43:00,71.4,71.4,29.78,WSW,249,0.0,0.0,100,0.00,,,0.00,59,WeatherHawk,2013-08-07 11:43:00,
2013-08-07 06:48:00,71.4,71.4,29.78,West,277,1.0,0.0,100,0.00,,,0.00,67,WeatherHawk,2013-08-07 11:48:00,
2013-08-07 06:53:00,71.7,71.7,29.78,WNW,283,1.0,0.0,100,0.00,,,0.00,79,WeatherHawk,2013-08-07 11:53:00,
2013-08-07 06:58:00,71.6,71.6,29.78,WNW,283,2.0,0.0,100,0.00,,,0.00,88,WeatherHawk,2013-08-07 11:58:00,
2013-08-07 07:04:00,71.1,71.1,29.78,West,280,0.0,0.0,100,0.00,,,0.00,70,WeatherHawk,2013-08-07 12:04:00,
2013-08-07 07:09:00,70.9,70.9,29.78,NNW,328,3.0,0.0,100,0.00,,,0.00,75,WeatherHawk,2013-08-07 12:09:00,
2013-08-07 07:15:00,71.3,71.3,29.79,NW,317,0.0,0.0,100,0.00,,,0.00,136,WeatherHawk,2013-08-07 12:15:00,
2013-08-07 07:20:00,71.4,71.4,29.78,NW,317,0.0,0.0,100,0.00,,,0.00,67,WeatherHawk,2013-08-07 12:20:00,
2013-08-07 07:25:00,71.0,71.0,29.79,WNW,288,1.0,0.0,100,0.00,,,0.00,50,WeatherHawk,2013-08-07 12:25:00,
2013-08-07 07:31:00,71.7,71.7,29.79,NNE,29,1.0,0.0,100,0.00,,,0.00,194,WeatherHawk,2013-08-07 12:31:00,
2013-08-07 07:36:00,71.0,69.2,29.79,NNE,13,3.0,0.0,94,0.00,,,0.00,191,WeatherHawk,2013-08-07 12:36:00,
2013-08-07 07:42:00,70.4,67.6,29.79,North,6,4.0,0.0,91,0.00,,,0.00,207,WeatherHawk,2013-08-07 12:42:00,
2013-08-07 07:48:00,71.5,69.0,29.79,NW,321,0.0,0.0,92,0.00,,,0.00,226,WeatherHawk,2013-08-07 12:48:00,
2013-08-07 07:54:00,70.9,67.2,29.80,NNE,23,3.0,0.0,88,0.00,,,0.00,245,WeatherHawk,2013-08-07 12:54:00,
2013-08-07 07:59:00,72.0,68.2,29.81,NNE,32,2.0,0.0,88,0.00,,,0.00,262,WeatherHawk,2013-08-07 12:59:00,
2013-08-07 08:05:00,71.4,66.0,29.80,NW,307,1.0,0.0,83,0.00,,,0.00,279,WeatherHawk,2013-08-07 13:05:00,
2013-08-07 08:10:00,72.3,66.2,29.81,NNE,24,2.0,0.0,81,0.00,,,0.00,296,WeatherHawk,2013-08-07 13:10:00,
2013-08-07 08:16:00,71.3,64.1,29.81,NW,318,1.0,0.0,78,0.00,,,0.00,316,WeatherHawk,2013-08-07 13:16:00,
2013-08-07 08:22:00,71.6,62.5,29.81,WNW,289,5.0,0.0,73,0.00,,,0.00,328,WeatherHawk,2013-08-07 13:22:00,
2013-08-07 08:28:00,71.9,62.8,29.81,NW,309,4.0,0.0,73,0.00,,,0.00,349,WeatherHawk,2013-08-07 13:28:00,
2013-08-07 08:34:00,71.5,62.0,29.81,North,7,3.0,0.0,72,0.00,,,0.00,369,WeatherHawk,2013-08-07 13:34:00,
2013-08-07 08:39:00,72.1,60.9,29.82,NNW,335,5.0,0.0,68,0.00,,,0.00,379,WeatherHawk,2013-08-07 13:39:00,
2013-08-07 08:44:00,71.0,61.5,29.82,NNE,16,3.0,0.0,72,0.00,,,0.00,396,WeatherHawk,2013-08-07 13:44:00,
2013-08-07 08:49:00,71.6,60.4,29.82,NW,322,4.0,0.0,68,0.00,,,0.00,410,WeatherHawk,2013-08-07 13:49:00,
2013-08-07 08:54:00,72.6,60.5,29.82,NW,316,2.0,0.0,66,0.00,,,0.00,426,WeatherHawk,2013-08-07 13:54:00,
2013-08-07 08:59:00,72.9,60.4,29.82,North,7,1.0,0.0,65,0.00,,,0.00,444,WeatherHawk,2013-08-07 13:59:00,
2013-08-07 09:05:00,73.3,60.4,29.82,NNW,347,3.0,0.0,64,0.00,,,0.00,526,WeatherHawk,2013-08-07 14:05:00,
2013-08-07 09:10:00,71.6,58.3,29.82,NW,305,5.0,0.0,63,0.00,,,0.00,541,WeatherHawk,2013-08-07 14:10:00,
2013-08-07 09:15:00,71.2,59.3,29.82,WNW,301,1.0,0.0,66,0.00,,,0.00,307,WeatherHawk,2013-08-07 14:15:00,
2013-08-07 09:20:00,71.6,58.3,29.83,NW,320,5.0,0.0,63,0.00,,,0.00,608,WeatherHawk,2013-08-07 14:20:00,
2013-08-07 09:25:00,72.1,59.7,29.83,NW,306,0.0,0.0,65,0.00,,,0.00,527,WeatherHawk,2013-08-07 14:25:00,
2013-08-07 09:30:00,70.5,54.5,29.83,NW,311,6.0,-999.0,57,0.00,,,0.00,516,WeatherHawk,2013-08-07 14:30:00,
2013-08-07 09:35:00,74.1,59.3,29.82,WNW,284,3.0,-999.0,60,0.00,,,0.00,650,WeatherHawk,2013-08-07 14:35:00,
2013-08-07 09:40:00,71.8,56.2,29.84,WNW,295,2.0,0.0,58,0.00,,,0.00,303,WeatherHawk,2013-08-07 14:40:00,
2013-08-07 09:45:00,72.5,59.2,29.84,NW,318,1.0,0.0,63,0.00,,,0.00,351,WeatherHawk,2013-08-07 14:45:00,
2013-08-07 09:50:00,72.3,58.5,29.83,NNW,329,5.0,0.0,62,0.00,,,0.00,631,WeatherHawk,2013-08-07 14:50:00,
2013-08-07 09:55:00,71.8,56.3,29.84,NW,322,6.0,0.0,58,0.00,,,0.00,595,WeatherHawk,2013-08-07 14:55:00,
2013-08-07 10:00:00,73.4,58.7,29.83,NW,320,1.0,0.0,60,0.00,,,0.00,609,WeatherHawk,2013-08-07 15:00:00,
2013-08-07 10:05:00,74.1,57.4,29.83,WSW,255,6.0,0.0,56,0.00,,,0.00,617,WeatherHawk,2013-08-07 15:05:00,
2013-08-07 10:10:00,72.8,55.2,29.83,NNW,333,5.0,0.0,54,0.00,,,0.00,637,WeatherHawk,2013-08-07 15:10:00,
2013-08-07 10:15:00,75.6,58.3,29.83,West,260,1.0,0.0,55,0.00,,,0.00,720,WeatherHawk,2013-08-07 15:15:00,
2013-08-07 10:20:00,73.8,55.6,29.84,NNW,334,3.0,0.0,53,0.00,,,0.00,747,WeatherHawk,2013-08-07 15:20:00,
2013-08-07 10:25:00,73.1,54.4,29.83,NNW,334,2.0,0.0,52,0.00,,,0.00,709,WeatherHawk,2013-08-07 15:25:00,
2013-08-07 10:30:00,73.3,53.5,29.84,NW,318,6.0,0.0,50,0.00,,,0.00,728,WeatherHawk,2013-08-07 15:30:00,
2013-08-07 10:36:00,76.6,59.2,29.84,NW,313,0.0,0.0,55,0.00,,,0.00,686,WeatherHawk,2013-08-07 15:36:00,
2013-08-07 10:42:00,75.5,57.7,29.84,West,267,4.0,0.0,54,0.00,,,0.00,692,WeatherHawk,2013-08-07 15:42:00,
2013-08-07 10:48:00,74.7,54.8,29.84,NW,323,1.0,0.0,50,0.00,,,0.00,706,WeatherHawk,2013-08-07 15:48:00,
2013-08-07 10:53:00,77.7,57.5,29.84,WSW,250,1.0,0.0,50,0.00,,,0.00,723,WeatherHawk,2013-08-07 15:53:00,
2013-08-07 10:59:00,74.9,53.3,29.84,NW,314,4.0,0.0,47,0.00,,,0.00,738,WeatherHawk,2013-08-07 15:59:00,
2013-08-07 11:04:00,78.5,59.9,29.85,NNW,336,0.0,0.0,53,0.00,,,0.00,745,WeatherHawk,2013-08-07 16:04:00,
2013-08-07 11:10:00,77.4,58.4,29.86,NNW,342,4.0,0.0,52,0.00,,,0.00,743,WeatherHawk,2013-08-07 16:10:00,
2013-08-07 11:16:00,79.2,60.0,29.84,WNW,289,0.0,0.0,52,0.00,,,0.00,750,WeatherHawk,2013-08-07 16:16:00,
2013-08-07 11:20:00,76.7,54.9,29.85,WNW,297,3.0,0.0,47,0.00,,,0.00,756,WeatherHawk,2013-08-07 16:20:00,
2013-08-07 11:26:00,77.1,58.1,29.86,West,272,5.0,0.0,52,0.00,,,0.00,769,WeatherHawk,2013-08-07 16:26:00,
2013-08-07 11:31:00,77.7,58.7,29.85,West,272,3.0,0.0,52,0.00,,,0.00,772,WeatherHawk,2013-08-07 16:31:00,
2013-08-07 11:37:00,76.9,57.4,29.86,NNW,329,2.0,0.0,51,0.00,,,0.00,796,WeatherHawk,2013-08-07 16:37:00,
2013-08-07 11:43:00,76.8,56.7,29.85,NW,316,7.0,0.0,50,0.00,,,0.00,803,WeatherHawk,2013-08-07 16:43:00,
2013-08-07 11:49:00,76.9,56.8,29.86,NNW,340,7.0,0.0,50,0.00,,,0.00,839,WeatherHawk,2013-08-07 16:49:00,
2013-08-07 11:54:00,76.9,57.9,29.86,West,281,5.0,0.0,52,0.00,,,0.00,868,WeatherHawk,2013-08-07 16:54:00,
2013-08-07 11:59:00,76.6,56.0,29.86,WNW,285,8.0,0.0,49,0.00,,,0.00,913,WeatherHawk,2013-08-07 16:59:00,
2013-08-07 12:05:00,76.1,57.7,29.86,NW,323,3.0,0.0,53,0.00,,,0.00,876,WeatherHawk,2013-08-07 17:05:00,
2013-08-07 12:10:00,77.8,59.2,29.86,NNE,19,0.0,0.0,53,0.00,,,0.00,874,WeatherHawk,2013-08-07 17:10:00,
2013-08-07 12:15:00,78.5,60.5,29.86,NNW,345,4.0,0.0,54,0.00,,,0.00,195,WeatherHawk,2013-08-07 17:15:00,
2013-08-07 12:20:00,76.0,55.5,29.86,NW,309,9.0,0.0,49,0.00,,,0.00,993,WeatherHawk,2013-08-07 17:20:00,
2013-08-07 12:25:00,76.5,55.4,29.87,WSW,242,9.0,0.0,48,0.00,,,0.00,196,WeatherHawk,2013-08-07 17:25:00,
2013-08-07 12:30:00,78.5,59.4,29.87,NNW,331,3.0,0.0,52,0.00,,,0.00,926,WeatherHawk,2013-08-07 17:30:00,
2013-08-07 12:35:00,78.4,58.7,29.88,NNE,20,2.0,0.0,51,0.00,,,0.00,302,WeatherHawk,2013-08-07 17:35:00,
2013-08-07 12:41:00,76.6,55.4,29.87,NW,306,8.0,0.0,48,0.00,,,0.00,940,WeatherHawk,2013-08-07 17:41:00,
2013-08-07 12:46:00,77.2,55.4,29.87,NW,306,6.0,0.0,47,0.00,,,0.00,915,WeatherHawk,2013-08-07 17:46:00,
2013-08-07 12:51:00,76.5,56.4,29.87,NNW,327,6.0,0.0,50,0.00,,,0.00,407,WeatherHawk,2013-08-07 17:51:00,
2013-08-07 12:57:00,76.4,56.9,29.87,NW,319,8.0,0.0,51,0.00,,,0.00,960,WeatherHawk,2013-08-07 17:57:00,
2013-08-07 13:03:00,78.8,61.2,29.87,North,11,5.0,0.0,55,0.00,,,0.00,905,WeatherHawk,2013-08-07 18:03:00,
2013-08-07 13:08:00,76.8,57.3,29.87,WNW,298,13.0,0.0,51,0.00,,,0.00,949,WeatherHawk,2013-08-07 18:08:00,
2013-08-07 13:13:00,76.3,56.8,29.88,North,6,5.0,0.0,51,0.00,,,0.00,249,WeatherHawk,2013-08-07 18:13:00,
2013-08-07 13:19:00,75.0,55.6,29.88,WNW,292,7.0,0.0,51,0.00,,,0.00,938,WeatherHawk,2013-08-07 18:19:00,
2013-08-07 13:25:00,78.3,61.3,29.88,WSW,250,9.0,0.0,56,0.00,,,0.00,907,WeatherHawk,2013-08-07 18:25:00,
2013-08-07 13:30:00,74.1,56.9,29.88,NNW,347,8.0,0.0,55,0.00,,,0.00,870,WeatherHawk,2013-08-07 18:30:00,
2013-08-07 13:35:00,75.7,59.8,29.87,North,1,3.0,0.0,58,0.00,,,0.00,844,WeatherHawk,2013-08-07 18:35:00,
2013-08-07 13:41:00,76.7,59.8,29.89,West,273,5.0,0.0,56,0.00,,,0.00,823,WeatherHawk,2013-08-07 18:41:00,
2013-08-07 13:46:00,75.5,59.6,29.88,NNE,16,10.0,0.0,58,0.00,,,0.00,814,WeatherHawk,2013-08-07 18:46:00,
2013-08-07 13:52:00,74.3,59.5,29.88,NNW,336,11.0,0.0,60,0.00,,,0.00,805,WeatherHawk,2013-08-07 18:52:00,
2013-08-07 13:59:00,74.8,60.5,29.88,NW,323,1.0,0.0,61,0.00,,,0.00,802,WeatherHawk,2013-08-07 18:59:00,
2013-08-07 14:05:00,75.3,62.3,29.88,NW,324,5.0,0.0,64,0.00,,,0.00,800,WeatherHawk,2013-08-07 19:05:00,
2013-08-07 14:10:00,73.0,57.8,29.88,NNW,341,8.0,0.0,59,0.00,,,0.00,787,WeatherHawk,2013-08-07 19:10:00,
2013-08-07 14:16:00,72.0,57.3,29.87,WNW,298,8.0,0.0,60,0.00,,,0.00,785,WeatherHawk,2013-08-07 19:16:00,
2013-08-07 14:22:00,72.3,57.1,29.88,WNW,303,9.0,0.0,59,0.00,,,0.00,785,WeatherHawk,2013-08-07 19:22:00,
2013-08-07 14:28:00,73.5,60.6,29.89,North,349,5.0,0.0,64,0.00,,,0.00,782,WeatherHawk,2013-08-07 19:28:00,
2013-08-07 14:34:00,72.5,57.8,29.89,NW,315,4.0,0.0,60,0.00,,,0.00,567,WeatherHawk,2013-08-07 19:34:00,
2013-08-07 14:39:00,72.6,59.3,29.88,NNW,333,4.0,0.0,63,0.00,,,0.00,260,WeatherHawk,2013-08-07 19:39:00,
2013-08-07 14:44:00,72.0,57.8,29.89,NNW,347,9.0,0.0,61,0.00,,,0.00,831,WeatherHawk,2013-08-07 19:44:00,
2013-08-07 14:50:00,71.8,57.6,29.89,North,350,7.0,0.0,61,0.00,,,0.00,358,WeatherHawk,2013-08-07 19:50:00,
2013-08-07 14:55:00,72.2,57.5,29.89,North,2,6.0,0.0,60,0.00,,,0.00,758,WeatherHawk,2013-08-07 19:55:00,
2013-08-07 15:00:00,71.7,58.0,29.89,WNW,286,4.0,0.0,62,0.00,,,0.00,406,WeatherHawk,2013-08-07 20:00:00,
2013-08-07 15:06:00,71.0,57.4,29.89,NW,318,10.0,0.0,62,0.00,,,0.00,289,WeatherHawk,2013-08-07 20:06:00,
2013-08-07 15:12:00,73.0,59.2,29.88,WNW,284,6.0,0.0,62,0.00,,,0.00,787,WeatherHawk,2013-08-07 20:12:00,
2013-08-07 15:18:00,72.9,59.1,29.89,NW,314,7.0,0.0,62,0.00,,,0.00,905,WeatherHawk,2013-08-07 20:18:00,
2013-08-07 15:23:00,73.3,59.5,29.89,NNW,334,3.0,0.0,62,0.00,,,0.00,827,WeatherHawk,2013-08-07 20:23:00,
2013-08-07 15:28:00,72.2,58.9,29.89,North,349,5.0,0.0,63,0.00,,,0.00,358,WeatherHawk,2013-08-07 20:28:00,
2013-08-07 15:33:00,73.3,59.5,29.89,NNE,16,3.0,0.0,62,0.00,,,0.00,272,WeatherHawk,2013-08-07 20:33:00,
2013-08-07 15:39:00,72.1,58.4,29.89,North,6,3.0,0.0,62,0.00,,,0.00,199,WeatherHawk,2013-08-07 20:39:00,
2013-08-07 15:45:00,73.2,58.5,29.89,NNE,24,6.0,0.0,60,0.00,,,0.00,442,WeatherHawk,2013-08-07 20:45:00,
2013-08-07 15:50:00,73.7,60.3,29.89,North,3,3.0,0.0,63,0.00,,,0.00,731,WeatherHawk,2013-08-07 20:50:00,
2013-08-07 15:55:00,72.1,58.3,29.88,North,1,5.0,0.0,62,0.00,,,0.00,356,WeatherHawk,2013-08-07 20:55:00,
2013-08-07 16:00:00,73.5,58.7,29.89,NNE,16,5.0,0.0,60,0.00,,,0.00,668,WeatherHawk,2013-08-07 21:00:00,
2013-08-07 16:06:00,74.5,59.6,29.89,NE,39,3.0,0.0,60,0.00,,,0.00,709,WeatherHawk,2013-08-07 21:06:00,
2013-08-07 16:12:00,74.6,57.3,29.89,West,276,5.0,0.0,55,0.00,,,0.00,688,WeatherHawk,2013-08-07 21:12:00,
2013-08-07 16:18:00,75.5,58.7,29.89,NW,320,4.0,0.0,56,0.00,,,0.00,597,WeatherHawk,2013-08-07 21:18:00,
2013-08-07 16:23:00,73.5,56.3,29.88,NW,313,6.0,0.0,55,0.00,,,0.00,566,WeatherHawk,2013-08-07 21:23:00,
2013-08-07 16:28:00,73.6,55.9,29.88,NW,319,7.0,0.0,54,0.00,,,0.00,543,WeatherHawk,2013-08-07 21:28:00,
2013-08-07 16:34:00,75.7,59.8,29.89,NNW,336,0.0,0.0,58,0.00,,,0.00,548,WeatherHawk,2013-08-07 21:34:00,
2013-08-07 16:40:00,75.6,59.2,29.89,NNW,332,4.0,0.0,57,0.00,,,0.00,545,WeatherHawk,2013-08-07 21:40:00,
2013-08-07 16:45:00,73.3,58.1,29.88,NW,326,4.0,0.0,59,0.00,,,0.00,117,WeatherHawk,2013-08-07 21:45:00,
2013-08-07 16:50:00,75.2,60.8,29.89,East,96,0.0,0.0,61,0.00,,,0.00,138,WeatherHawk,2013-08-07 21:50:00,
2013-08-07 16:55:00,74.7,59.4,29.89,North,351,4.0,0.0,59,0.00,,,0.00,428,WeatherHawk,2013-08-07 21:55:00,
2013-08-07 17:00:00,73.3,56.6,29.88,North,8,5.0,-999.0,56,0.00,,,0.00,238,WeatherHawk,2013-08-07 22:00:00,
2013-08-07 17:06:00,76.7,61.3,29.89,North,9,0.0,0.0,59,0.00,,,0.00,214,WeatherHawk,2013-08-07 22:06:00,
2013-08-07 17:12:00,74.9,59.1,29.88,North,7,0.0,0.0,58,0.00,,,0.00,475,WeatherHawk,2013-08-07 22:12:00,
2013-08-07 17:17:00,74.5,59.6,29.88,NNW,340,1.0,0.0,60,0.00,,,0.00,96,WeatherHawk,2013-08-07 22:17:00,
2013-08-07 17:22:00,73.7,58.5,29.88,North,5,0.0,0.0,59,0.00,,,0.00,89,WeatherHawk,2013-08-07 22:22:00,
2013-08-07 17:28:00,74.9,57.6,29.88,NNE,21,0.0,0.0,55,0.00,,,0.00,412,WeatherHawk,2013-08-07 22:28:00,
2013-08-07 17:34:00,74.7,58.4,29.88,North,7,2.0,0.0,57,0.00,,,0.00,380,WeatherHawk,2013-08-07 22:34:00,
2013-08-07 17:39:00,74.8,58.1,29.88,NNE,28,2.0,0.0,56,0.00,,,0.00,413,WeatherHawk,2013-08-07 22:39:00,
2013-08-07 17:44:00,76.6,59.7,29.88,SE,137,0.0,0.0,56,0.00,,,0.00,455,WeatherHawk,2013-08-07 22:44:00,
2013-08-07 17:50:00,77.0,59.1,29.88,WNW,300,1.0,0.0,54,0.00,,,0.00,435,WeatherHawk,2013-08-07 22:50:00,
2013-08-07 17:55:00,75.9,57.6,29.89,North,8,2.0,0.0,53,0.00,,,0.00,422,WeatherHawk,2013-08-07 22:55:00,
2013-08-07 18:00:00,75.5,57.1,29.89,NNE,18,4.0,0.0,53,0.00,,,0.00,303,WeatherHawk,2013-08-07 23:00:00,
2013-08-07 18:05:00,75.3,58.0,29.88,NNE,29,0.0,-999.0,55,0.00,,,0.00,110,WeatherHawk,2013-08-07 23:05:00,
2013-08-07 18:10:00,73.9,57.7,29.89,NE,39,5.0,0.0,57,0.00,,,0.00,60,WeatherHawk,2013-08-07 23:10:00,
2013-08-07 18:16:00,73.5,58.3,29.88,North,350,3.0,0.0,59,0.00,,,0.00,69,WeatherHawk,2013-08-07 23:16:00,
2013-08-07 18:22:00,73.5,59.2,29.89,North,2,1.0,0.0,61,0.00,,,0.00,77,WeatherHawk,2013-08-07 23:22:00,
2013-08-07 18:28:00,73.2,59.8,29.89,NW,308,1.0,0.0,63,0.00,,,0.00,89,WeatherHawk,2013-08-07 23:28:00,
2013-08-07 18:34:00,74.1,61.1,29.89,North,0,3.0,0.0,64,0.00,,,0.00,208,WeatherHawk,2013-08-07 23:34:00,
2013-08-07 18:40:00,74.3,60.4,29.89,NW,315,0.0,0.0,62,0.00,,,0.00,176,WeatherHawk,2013-08-07 23:40:00,
2013-08-07 18:45:00,73.7,60.7,29.89,NNE,12,1.0,0.0,64,0.00,,,0.00,45,WeatherHawk,2013-08-07 23:45:00,
2013-08-07 18:51:00,73.6,61.5,29.89,NW,310,0.0,0.0,66,0.00,,,0.00,54,WeatherHawk,2013-08-07 23:51:00,
2013-08-07 18:57:00,72.4,60.8,29.89,North,4,0.0,0.0,67,0.00,,,0.00,62,WeatherHawk,2013-08-07 23:57:00,
2013-08-07 19:02:00,72.7,61.5,29.89,WNW,297,0.0,0.0,68,0.00,,,0.00,35,WeatherHawk,2013-08-08 00:02:00,
2013-08-07 19:07:00,73.1,62.7,29.89,NW,326,0.0,0.0,70,0.00,,,0.00,84,WeatherHawk,2013-08-08 00:07:00,
2013-08-07 19:12:00,73.3,61.7,29.89,West,280,0.0,0.0,67,0.00,,,0.00,76,WeatherHawk,2013-08-08 00:12:00,
2013-08-07 19:18:00,73.3,60.8,29.89,NW,325,3.0,0.0,65,0.00,,,0.00,72,WeatherHawk,2013-08-08 00:18:00,
2013-08-07 19:24:00,72.7,61.1,29.89,NNW,347,0.0,0.0,67,0.00,,,0.00,50,WeatherHawk,2013-08-08 00:24:00,
2013-08-07 19:29:00,72.3,59.4,29.89,NNE,12,1.0,0.0,64,0.00,,,0.00,33,WeatherHawk,2013-08-08 00:29:00,
2013-08-07 19:35:00,72.1,59.7,29.90,NW,311,0.0,0.0,65,0.00,,,0.00,24,WeatherHawk,2013-08-08 00:35:00,
2013-08-07 19:40:00,72.1,60.1,29.89,North,7,0.0,0.0,66,0.00,,,0.00,21,WeatherHawk,2013-08-08 00:40:00,
2013-08-07 19:46:00,70.9,60.2,29.89,North,7,0.0,0.0,69,0.00,,,0.00,14,WeatherHawk,2013-08-08 00:46:00,
2013-08-07 19:51:00,70.9,60.7,29.90,North,7,0.0,0.0,70,0.00,,,0.00,12,WeatherHawk,2013-08-08 00:51:00,
2013-08-07 19:57:00,70.3,61.2,29.90,North,7,0.0,0.0,73,0.00,,,0.00,8,WeatherHawk,2013-08-08 00:57:00,
2013-08-07 20:02:00,70.2,61.9,29.90,North,7,0.0,0.0,75,0.00,,,0.00,6,WeatherHawk,2013-08-08 01:02:00,
2013-08-07 20:08:00,69.5,61.5,29.89,North,7,0.0,0.0,76,0.00,,,0.00,4,WeatherHawk,2013-08-08 01:08:00,
2013-08-07 20:13:00,68.9,62.2,29.90,North,7,0.0,0.0,79,0.00,,,0.00,3,WeatherHawk,2013-08-08 01:13:00,
2013-08-07 20:20:00,68.5,62.8,29.90,North,7,0.0,0.0,82,0.00,,,0.00,3,WeatherHawk,2013-08-08 01:20:00,
2013-08-07 20:25:00,68.7,63.3,29.90,North,7,0.0,0.0,83,0.00,,,0.00,2,WeatherHawk,2013-08-08 01:25:00,
2013-08-07 20:31:00,67.7,63.0,29.90,North,7,0.0,0.0,85,0.00,,,0.00,1,WeatherHawk,2013-08-08 01:31:00,
2013-08-07 20:37:00,66.6,63.3,29.90,North,7,0.0,0.0,89,0.00,,,0.00,0,WeatherHawk,2013-08-08 01:37:00,
2013-08-07 20:42:00,68.0,64.7,29.90,North,7,0.0,0.0,89,0.00,,,0.00,0,WeatherHawk,2013-08-08 01:42:00,
2013-08-07 20:48:00,67.0,64.2,29.90,North,7,0.0,0.0,91,0.00,,,0.00,0,WeatherHawk,2013-08-08 01:48:00,
2013-08-07 20:53:00,67.5,65.1,29.91,North,7,0.0,0.0,92,0.00,,,0.00,0,WeatherHawk,2013-08-08 01:53:00,
2013-08-07 20:59:00,67.4,65.3,29.91,North,7,0.0,0.0,93,0.00,,,0.00,0,WeatherHawk,2013-08-08 01:59:00,
2013-08-07 21:04:00,66.5,64.7,29.91,North,7,0.0,0.0,94,0.00,,,0.00,0,WeatherHawk,2013-08-08 02:04:00,
2013-08-07 21:10:00,66.6,65.4,29.91,North,7,0.0,0.0,96,0.00,,,0.00,0,WeatherHawk,2013-08-08 02:10:00,
2013-08-07 21:15:00,66.7,65.5,29.91,North,7,0.0,0.0,96,0.00,,,0.00,0,WeatherHawk,2013-08-08 02:15:00,
2013-08-07 21:21:00,66.1,65.0,29.92,North,7,0.0,0.0,96,0.00,,,0.00,1,WeatherHawk,2013-08-08 02:21:00,
2013-08-07 21:27:00,65.5,64.4,29.92,North,7,0.0,0.0,96,0.00,,,0.00,0,WeatherHawk,2013-08-08 02:27:00,
2013-08-07 21:32:00,66.3,64.8,29.92,North,7,0.0,0.0,95,0.00,,,0.00,0,WeatherHawk,2013-08-08 02:32:00,
2013-08-07 21:38:00,65.1,63.6,29.92,North,7,0.0,0.0,95,0.00,,,0.00,0,WeatherHawk,2013-08-08 02:38:00,
2013-08-07 21:44:00,65.4,64.8,29.92,North,7,0.0,0.0,98,0.00,,,0.00,0,WeatherHawk,2013-08-08 02:44:00,
2013-08-07 21:49:00,64.9,64.3,29.91,NW,310,0.0,0.0,98,0.00,,,0.00,0,WeatherHawk,2013-08-08 02:49:00,
2013-08-07 21:54:00,64.4,64.4,29.92,NW,310,0.0,0.0,100,0.00,,,0.00,0,WeatherHawk,2013-08-08 02:54:00,
2013-08-07 21:59:00,64.6,64.6,29.92,NW,310,0.0,0.0,100,0.00,,,0.00,0,WeatherHawk,2013-08-08 02:59:00,
2013-08-07 22:04:00,63.4,63.4,29.92,NW,310,0.0,0.0,100,0.00,,,0.00,0,WeatherHawk,2013-08-08 03:04:00,
2013-08-07 22:09:00,63.6,63.6,29.92,NW,310,0.0,0.0,100,0.00,,,0.00,0,WeatherHawk,2013-08-08 03:09:00,
2013-08-07 22:14:00,61.6,61.6,29.92,NW,310,0.0,0.0,100,0.00,,,0.00,0,WeatherHawk,2013-08-08 03:14:00,
2013-08-07 22:20:00,61.5,61.5,29.91,NW,310,0.0,0.0,100,0.00,,,0.00,0,WeatherHawk,2013-08-08 03:20:00,
2013-08-07 22:26:00,64.2,64.2,29.92,NW,310,0.0,0.0,100,0.00,,,0.00,0,WeatherHawk,2013-08-08 03:26:00,
2013-08-07 22:31:00,63.8,63.8,29.92,NW,310,0.0,0.0,100,0.00,,,0.00,0,WeatherHawk,2013-08-08 03:31:00,
2013-08-07 22:37:00,63.8,63.8,29.92,NW,310,0.0,0.0,100,0.00,,,0.00,1,WeatherHawk,2013-08-08 03:37:00,
2013-08-07 22:42:00,63.9,63.9,29.92,NW,310,0.0,0.0,100,0.00,,,0.00,0,WeatherHawk,2013-08-08 03:42:00,
2013-08-07 22:48:00,64.3,64.0,29.92,NW,310,0.0,0.0,99,0.00,,,0.00,0,WeatherHawk,2013-08-08 03:48:00,
2013-08-07 22:53:00,63.7,63.7,29.92,NW,310,0.0,0.0,100,0.00,,,0.00,0,WeatherHawk,2013-08-08 03:53:00,
2013-08-07 22:58:00,63.6,62.5,29.92,NNE,12,1.0,0.0,96,0.00,,,0.00,0,WeatherHawk,2013-08-08 03:58:00,
2013-08-07 23:02:00,62.8,61.6,29.92,NNE,12,0.0,0.0,96,0.00,,,0.00,0,WeatherHawk,2013-08-08 04:02:00,
2013-08-07 23:05:00,63.1,62.5,29.92,NNE,12,0.0,0.0,98,0.00,,,0.00,0,WeatherHawk,2013-08-08 04:05:00,
2013-08-07 23:11:00,62.8,62.2,29.92,NNE,12,0.0,0.0,98,0.00,,,0.00,0,WeatherHawk,2013-08-08 04:11:00,
2013-08-07 23:16:00,62.5,61.9,29.92,NNE,12,0.0,0.0,98,0.00,,,0.00,0,WeatherHawk,2013-08-08 04:16:00,
2013-08-07 23:22:00,63.5,63.5,29.92,NNE,12,0.0,0.0,100,0.00,,,0.00,0,WeatherHawk,2013-08-08 04:22:00,
2013-08-07 23:28:00,63.4,62.8,29.92,NNE,12,0.0,0.0,98,0.00,,,0.00,0,WeatherHawk,2013-08-08 04:28:00,
2013-08-07 23:33:00,63.2,62.9,29.92,NNE,12,0.0,0.0,99,0.00,,,0.00,1,WeatherHawk,2013-08-08 04:33:00,
2013-08-07 23:39:00,63.1,63.1,29.93,NNE,12,0.0,0.0,100,0.00,,,0.00,0,WeatherHawk,2013-08-08 04:39:00,
2013-08-07 23:44:00,63.3,63.0,29.93,NNE,12,0.0,0.0,99,0.00,,,0.00,0,WeatherHawk,2013-08-08 04:44:00,
2013-08-07 23:49:00,64.2,63.0,29.92,NNE,12,0.0,0.0,96,0.00,,,0.00,0,WeatherHawk,2013-08-08 04:49:00,
2013-08-07 23:54:00,63.7,62.3,29.93,NNE,12,0.0,0.0,95,0.00,,,0.00,0,WeatherHawk,2013-08-08 04:54:00,